Wallops Island, VA

11:51 AM EST on December 09, 2019 (GMT -0500)
Wallops Flight Facility

Weather History for KWAL - October, 2019

Change the Weather History Date:

Sunday, October 13, 2019

  Actual Average Record
Temperature  
Mean Temperature 64 °F 60 °F  
Max Temperature 71 °F 69 °F 83 °F (1990)
Min Temperature 56 °F 51 °F 34 °F (1988)
Degree Days  
Heating Degree Days 1    
Month to date heating degree days 19  
Since 1 July heating degree days 28  
Cooling Degree Days 0    
Month to date cooling degree days 53  
Year to date cooling degree days 1800  
Growing Degree Days 13 (Base 50)    
Moisture  
Dew Point 59 °F    
Average Humidity 82    
Maximum Humidity 100    
Minimum Humidity 63    
Precipitation  
Precipitation 0.30 in 0.10 in 0.66 in (1998)
Month to date precipitation 0.33 1.34  
Year to date precipitation 34.66 32.71  
Sea Level Pressure  
Sea Level Pressure 30.04 in    
Wind  
Wind Speed 7 mph (East)    
Max Wind Speed 15 mph    
Max Gust Speed 28 mph    
Visibility 9 miles    
Events Rain    
T = Trace of Precipitation, MM = Missing Value Source: NWS Daily Summary

Daily Weather History Graph

Daily Weather History Graph

Search for Another Location

Airport or City:

Astronomy

Oct. 13, 2019 Rise Set
Actual Time 7:08 AM EDT 6:27 PM EDT
Civil Twilight 6:41 AM EDT 6:53 PM EDT
Nautical Twilight 6:11 AM EDT 7:24 PM EDT
Astronomical Twilight 5:40 AM EDT 7:54 PM EDT
Moon 6:47 PM EDT (10/13) 6:41 AM EDT (10/13)
Length of Visible Light 12h 12m
Length of Day
11h 19m
Full, 100% of the Moon is Illuminated
Oct 13
Full
Oct 13
Full
Oct 21
Last Quarter
Oct 27
New
Nov 4
First Quarter

Hourly Weather History & Observations

Time (EDT) Temp. Dew Point Humidity Pressure Visibility Wind Dir Wind Speed Gust Speed Precip Events Conditions
12:54 AM 57.9 °F 54.0 °F 87% 30.03 in 10.0 mi Calm Calm - N/A   Scattered Clouds
1:54 AM 57.0 °F 54.0 °F 89% 30.03 in 10.0 mi Calm Calm - N/A   Clear
2:54 AM 59.0 °F 55.9 °F 90% 30.03 in 10.0 mi NW 3.5 mph - N/A   Overcast
3:54 AM 60.1 °F 55.9 °F 86% 30.03 in 10.0 mi NNW 5.8 mph - N/A   Mostly Cloudy
4:54 AM 60.1 °F 55.9 °F 86% 30.05 in 10.0 mi NNW 5.8 mph - N/A   Overcast
5:54 AM 57.9 °F 51.1 °F 78% 30.06 in 10.0 mi North 8.1 mph - N/A   Clear
6:54 AM 55.9 °F 48.9 °F 77% 30.08 in 10.0 mi North 6.9 mph - N/A   Partly Cloudy
7:54 AM 57.0 °F 48.9 °F 74% 30.10 in 10.0 mi North 5.8 mph - N/A   Partly Cloudy
8:54 AM 61.0 °F 50.0 °F 67% 30.10 in 10.0 mi NNE 9.2 mph - N/A   Partly Cloudy
9:54 AM 64.9 °F 52.0 °F 63% 30.10 in 10.0 mi NE 12.7 mph - N/A   Partly Cloudy
10:54 AM 66.0 °F 53.1 °F 63% 30.10 in 10.0 mi NE 12.7 mph - N/A   Clear
11:54 AM 66.9 °F 55.0 °F 66% 30.09 in 10.0 mi East 11.5 mph - N/A   Scattered Clouds
12:54 PM 69.1 °F 57.0 °F 65% 30.07 in 10.0 mi ENE 12.7 mph - N/A   Mostly Cloudy
1:37 PM 69.1 °F 57.9 °F 68% 30.07 in 10.0 mi East 11.5 mph - N/A   Mostly Cloudy
1:49 PM 68.0 °F 57.2 °F 68% 30.06 in 10.0 mi East 10.4 mph - N/A   Mostly Cloudy
1:54 PM 69.1 °F 57.9 °F 68% 30.05 in 10.0 mi East 11.5 mph - N/A   Mostly Cloudy
2:54 PM 66.9 °F 59.0 °F 76% 30.03 in 10.0 mi East 9.2 mph - N/A   Partly Cloudy
3:52 PM 66.2 °F 60.8 °F 83% 30.04 in 10.0 mi East 8.1 mph - N/A   Overcast
3:54 PM 66.9 °F 61.0 °F 81% 30.03 in 10.0 mi East 6.9 mph - N/A   Overcast
4:28 PM 68.0 °F 61.0 °F 78% 30.03 in 10.0 mi East 8.1 mph - N/A   Scattered Clouds
4:50 PM 68.0 °F 62.6 °F 83% 30.03 in 10.0 mi East 6.9 mph - N/A   Mostly Cloudy
4:54 PM 66.9 °F 62.1 °F 84% 30.02 in 10.0 mi East 6.9 mph - N/A   Mostly Cloudy
5:15 PM 66.9 °F 63.0 °F 87% 30.02 in 5.0 mi East 8.1 mph - 0.01 in Rain Rain
5:26 PM 66.9 °F 64.0 °F 90% 30.03 in 10.0 mi ESE 5.8 mph - 0.01 in   Overcast
5:54 PM 66.9 °F 64.0 °F 90% 30.02 in 10.0 mi Calm Calm - 0.01 in   Overcast
6:18 PM 66.0 °F 64.0 °F 93% 30.02 in 10.0 mi ESE 5.8 mph - 0.01 in   Overcast
6:54 PM 66.0 °F 64.0 °F 93% 30.00 in 10.0 mi East 4.6 mph - 0.01 in   Mostly Cloudy
7:54 PM 66.0 °F 64.9 °F 96% 30.01 in 9.0 mi Calm Calm - 0.00 in Rain Light Rain
8:54 PM 66.0 °F 64.9 °F 96% 30.02 in 6.0 mi Calm Calm - 0.10 in Rain Light Rain
9:12 PM 64.9 °F 64.9 °F 100% 30.02 in 2.0 mi SSW 5.8 mph - 0.06 in Rain Heavy Rain
9:18 PM 66.0 °F 64.9 °F 96% 30.02 in 3.0 mi South 6.9 mph - 0.09 in Rain Heavy Rain
9:54 PM 64.9 °F 64.9 °F 100% 30.01 in 10.0 mi South 8.1 mph - 0.14 in Rain Light Rain
10:54 PM 66.0 °F 66.0 °F 100% 30.00 in 10.0 mi SSW 6.9 mph - 0.02 in   Overcast
11:54 PM 66.0 °F 66.0 °F 100% 30.00 in 10.0 mi SW 5.8 mph - N/A   Overcast